BAW906 EGLL-EDDF

Flight info

Callsign BAW906
Flight time N/A
Altitude 35000
Route DET L6 DVR UL9 KONAN UL607 SPI T180 NIVNU T847 IMCOM IMCOM1D
Aircraft A21N/M-SDE2E3FGHIRWXY/LB1

Departure

Time 2026-05-01 14:53
Airport London Heathrow Airport (EGLL)

Arrival

Time N/A
Airport Frankfurt Main Airport (EDDF)
Time Latitude Longitude Altitude Speed Heading
2026-05-01 14:28 51.46916 -0.48227 92 ft 0 kts 89°
2026-05-01 14:44 51.46916 -0.48247 91 ft 4 kts 89°
2026-05-01 14:44 51.46916 -0.48324 91 ft 4 kts 105°
2026-05-01 14:44 51.46928 -0.48352 91 ft 4 kts 163°
2026-05-01 14:45 51.46952 -0.48355 93 ft 4 kts 179°
2026-05-01 14:45 51.46960 -0.48355 91 ft 0 kts 179°
2026-05-01 14:47 51.46957 -0.48355 91 ft 1 kts 179°
2026-05-01 14:47 51.46936 -0.48355 91 ft 5 kts 179°
2026-05-01 14:47 51.46891 -0.48355 91 ft 8 kts 179°
2026-05-01 14:48 51.46753 -0.48328 92 ft 13 kts 124°
2026-05-01 14:48 51.46742 -0.48163 92 ft 17 kts 90°
2026-05-01 14:48 51.46744 -0.47738 92 ft 21 kts 90°
2026-05-01 14:49 51.46746 -0.47222 92 ft 25 kts 90°
2026-05-01 14:49 51.46679 -0.46854 92 ft 17 kts 157°
2026-05-01 14:50 51.46658 -0.46526 92 ft 21 kts 89°
2026-05-01 14:50 51.46661 -0.45912 91 ft 27 kts 90°
2026-05-01 14:51 51.46662 -0.45597 91 ft 30 kts 90°
2026-05-01 14:51 51.46625 -0.45092 94 ft 17 kts 171°
2026-05-01 14:52 51.46489 -0.45390 92 ft 20 kts 272°
2026-05-01 14:52 51.46487 -0.45894 91 ft 81 kts 269°
2026-05-01 14:52 51.46484 -0.48869 490 ft 153 kts 266°
2026-05-01 14:53 51.46422 -0.50575 1131 ft 154 kts 263°
2026-05-01 14:53 51.46324 -0.52391 1542 ft 174 kts 253°
2026-05-01 14:53 51.45680 -0.54140 1996 ft 196 kts 222°
2026-05-01 14:53 51.44385 -0.55152 2424 ft 226 kts 187°
2026-05-01 14:54 51.42780 -0.54677 3019 ft 250 kts 152°
2026-05-01 14:54 51.41462 -0.52795 3961 ft 258 kts 134°
2026-05-01 14:54 51.40241 -0.50651 4982 ft 261 kts 135°
2026-05-01 14:54 51.38992 -0.48529 5974 ft 263 kts 137°
2026-05-01 14:55 51.37717 -0.46420 6955 ft 264 kts 137°
2026-05-01 14:55 51.36426 -0.44327 7861 ft 265 kts 137°
2026-05-01 14:55 51.35124 -0.42240 8746 ft 272 kts 138°
2026-05-01 14:55 51.33766 -0.40086 9617 ft 278 kts 138°
2026-05-01 14:56 51.32387 -0.37896 10502 ft 284 kts 137°
2026-05-01 14:56 51.31274 -0.35140 10904 ft 313 kts 112°
2026-05-01 14:56 51.30991 -0.31547 11236 ft 343 kts 89°
2026-05-01 14:56 51.31572 -0.27701 11547 ft 369 kts 74°
2026-05-01 14:57 51.32066 -0.23616 11828 ft 382 kts 91°
2026-05-01 14:57 51.31767 -0.14885 12708 ft 400 kts 96°
2026-05-01 14:57 51.31629 -0.10415 13293 ft 405 kts 95°
2026-05-01 14:58 51.31534 -0.05907 13894 ft 407 kts 95°
2026-05-01 14:58 51.31455 -0.01355 14424 ft 410 kts 95°
2026-05-01 14:58 51.31383 0.03228 14931 ft 414 kts 94°
2026-05-01 14:58 51.31315 0.07859 15492 ft 419 kts 95°
2026-05-01 14:59 51.31243 0.12525 16027 ft 421 kts 95°
2026-05-01 14:59 51.31164 0.17210 16494 ft 423 kts 95°
2026-05-01 14:59 51.31084 0.21932 16946 ft 426 kts 95°
2026-05-01 14:59 51.31001 0.26678 17385 ft 429 kts 95°
2026-05-01 15:00 51.30828 0.36249 18214 ft 433 kts 95°
2026-05-01 15:00 51.30738 0.41066 18605 ft 435 kts 95°
2026-05-01 15:00 51.30650 0.45752 18996 ft 437 kts 95°
2026-05-01 15:01 51.30558 0.50629 19410 ft 440 kts 95°
2026-05-01 15:01 51.30462 0.55520 19843 ft 442 kts 95°
2026-05-01 15:01 51.30180 0.60342 20242 ft 441 kts 103°
2026-05-01 15:01 51.29446 0.65088 20645 ft 441 kts 109°
2026-05-01 15:02 51.28574 0.69794 21091 ft 443 kts 110°
2026-05-01 15:02 51.27972 0.72991 21415 ft 446 kts 110°
2026-05-01 15:02 51.26801 0.79283 22060 ft 449 kts 109°
2026-05-01 15:02 51.25920 0.84076 22506 ft 451 kts 109°
2026-05-01 15:03 51.25036 0.88889 22931 ft 453 kts 109°
2026-05-01 15:03 51.24140 0.93736 23343 ft 456 kts 109°
2026-05-01 15:03 51.23235 0.98604 23745 ft 459 kts 109°
2026-05-01 15:03 51.22321 1.03496 24142 ft 461 kts 109°
2026-05-01 15:04 51.21406 1.08411 24513 ft 464 kts 109°
2026-05-01 15:04 51.20482 1.13353 24898 ft 465 kts 109°
2026-05-01 15:04 51.19555 1.18291 25395 ft 464 kts 109°
2026-05-01 15:04 51.18633 1.23211 25878 ft 463 kts 109°
2026-05-01 15:05 51.17709 1.28119 26353 ft 462 kts 109°
2026-05-01 15:05 51.16792 1.33016 26815 ft 460 kts 109°
2026-05-01 15:05 51.16141 1.38019 27252 ft 464 kts 99°
2026-05-01 15:05 51.15864 1.43146 27714 ft 464 kts 97°
2026-05-01 15:06 51.15634 1.48259 28151 ft 463 kts 97°
2026-05-01 15:06 51.15400 1.53363 28579 ft 461 kts 97°
2026-05-01 15:06 51.15157 1.58461 28983 ft 461 kts 97°
2026-05-01 15:06 51.14910 1.63544 29390 ft 460 kts 97°
2026-05-01 15:07 51.14660 1.68614 29794 ft 459 kts 97°
2026-05-01 15:07 51.14407 1.73676 30187 ft 458 kts 97°
2026-05-01 15:07 51.14148 1.78719 30517 ft 458 kts 97°
2026-05-01 15:07 51.13889 1.83767 30887 ft 457 kts 97°
2026-05-01 15:08 51.13633 1.88812 31266 ft 457 kts 97°
2026-05-01 15:08 51.13375 1.93841 31625 ft 457 kts 97°
2026-05-01 15:08 51.13113 1.98873 32007 ft 456 kts 97°
2026-05-01 15:08 51.12853 2.03827 32348 ft 455 kts 97°
2026-05-01 15:09 51.12583 2.08917 32636 ft 456 kts 97°
2026-05-01 15:09 51.12317 2.13868 32942 ft 455 kts 97°
2026-05-01 15:09 51.12048 2.18892 33246 ft 455 kts 97°
2026-05-01 15:09 51.11775 2.23909 33552 ft 455 kts 97°
2026-05-01 15:10 51.11499 2.28915 33834 ft 454 kts 97°
2026-05-01 15:10 51.10943 2.38909 34413 ft 452 kts 97°
2026-05-01 15:10 51.10666 2.43884 34664 ft 451 kts 97°
2026-05-01 15:11 51.10386 2.48861 34870 ft 452 kts 97°
2026-05-01 15:11 51.09817 2.58814 35240 ft 452 kts 97°
2026-05-01 15:12 51.08845 2.68641 35240 ft 449 kts 107°
2026-05-01 15:12 51.06243 2.82969 35231 ft 449 kts 108°
2026-05-01 15:14 51.01884 3.06822 35221 ft 450 kts 108°
2026-05-01 15:14 50.99235 3.21134 35221 ft 450 kts 108°
2026-05-01 15:15 50.95679 3.40230 35219 ft 451 kts 108°
2026-05-01 15:16 50.92083 3.59258 35231 ft 451 kts 108°
2026-05-01 15:18 50.87513 3.83032 35224 ft 451 kts 108°
2026-05-01 15:19 50.83843 4.01962 35231 ft 451 kts 108°
2026-05-01 15:19 50.81041 4.16238 35259 ft 454 kts 108°
2026-05-01 15:20 50.78221 4.30490 35271 ft 453 kts 108°
2026-05-01 15:21 50.76330 4.40011 35249 ft 454 kts 108°
2026-05-01 15:21 50.74744 4.47900 35262 ft 454 kts 108°
2026-05-01 15:22 50.71876 4.62150 35276 ft 454 kts 108°
2026-05-01 15:22 50.70038 4.71672 35256 ft 455 kts 108°
2026-05-01 15:23 50.68189 4.81211 35252 ft 455 kts 108°
2026-05-01 15:23 50.66328 4.90747 35270 ft 455 kts 108°
2026-05-01 15:24 50.64406 5.00260 35289 ft 455 kts 108°
2026-05-01 15:24 50.62450 5.09737 35288 ft 456 kts 108°
2026-05-01 15:25 50.60490 5.19233 35310 ft 455 kts 108°
2026-05-01 15:25 50.58547 5.28613 35319 ft 450 kts 108°
2026-05-01 15:26 50.56571 5.38059 35296 ft 457 kts 108°
2026-05-01 15:26 50.54524 5.47544 35306 ft 458 kts 112°
2026-05-01 15:27 50.52014 5.56753 35294 ft 458 kts 114°
2026-05-01 15:28 50.48250 5.70512 34890 ft 455 kts 113°
2026-05-01 15:28 50.47000 5.75098 34594 ft 458 kts 113°
2026-05-01 15:28 50.45745 5.79704 34320 ft 460 kts 113°
2026-05-01 15:29 50.43216 5.88940 33762 ft 461 kts 114°
2026-05-01 15:29 50.41952 5.93548 33126 ft 459 kts 114°
2026-05-01 15:29 50.39424 6.02743 31444 ft 460 kts 113°
2026-05-01 15:30 50.36867 6.12006 29707 ft 465 kts 113°
2026-05-01 15:31 50.31667 6.30728 25851 ft 472 kts 113°
2026-05-01 15:31 50.29052 6.40082 24277 ft 463 kts 113°
2026-05-01 15:32 50.26478 6.49263 22947 ft 456 kts 114°
2026-05-01 15:32 50.23971 6.58166 22034 ft 437 kts 114°
2026-05-01 15:33 50.20439 6.70659 20484 ft 405 kts 114°
2026-05-01 15:34 50.16973 6.82850 18857 ft 409 kts 114°